Regional Weather Roundup
Issued by NWS

Home | Current Version | Previous Version | Text Only | Print | Product List | Glossary On
Versions: 1 2 3 4 5 6 7 8 9 10 11 12 13 14 15 16 17 18 19 20 21 22 23 24 25 26 27 28 29 30 31 32 33 34 35 36 37 38 39 40 41 42 43 44 45 46 47 48 49 50
000
ASMX46 KSGX 250604
RWRMX

MEXICAN WEATHER ROUNDUP
NATIONAL WEATHER SERVICE SAN DIEGO CA
1100 PM PDT SAT JUN 24 2017

BAJA CALIFORNIA

CITY           SKY/WX    TMP DP  RH WIND       PRES   REMARKS
ENSENADA NW      N/A     64  32  29 E6        29.85R
LA PAZ           N/A    N/A N/A N/A MISG        N/A
MEXICALI       CLEAR     91  64  40 SE3       29.67R
S.J. DEL CABO    N/A    N/A N/A N/A MISG        N/A
TIJUANA        CLEAR     61  57  88 CALM      29.91R

NORTHWESTERN MEXICO

CITY           SKY/WX    TMP DP  RH WIND       PRES   REMARKS
HERMOSILLO     PTCLDY    91  61  35 NW6       29.79R

NORTHEASTERN MEXICO

CITY           SKY/WX    TMP DP  RH WIND       PRES   REMARKS
MONCLOVA         N/A    N/A N/A N/A MISG        N/A
MONTERREY      MOCLDY    72  64  78 N5        30.03R
REYNOSA          N/A    N/A N/A N/A MISG        N/A
VICTORIA         N/A    N/A N/A N/A MISG        N/A

WESTERN MEXICO

CITY           SKY/WX    TMP DP  RH WIND       PRES   REMARKS
AGUASCALIENTES   N/A    N/A N/A N/A MISG        N/A
COLIMA           N/A    N/A N/A N/A MISG        N/A
GUADALAJARA    LGT RAIN  64  59  82 E9        30.19S
MAZATLAN       MOCLDY    79  73  83 CALM      29.89R
PTO. VALLARTA  CLOUDY    77  77 100 SE3       29.91R
TEPIC            N/A    N/A N/A N/A MISG        N/A
URUAPAN          N/A    N/A N/A N/A MISG        N/A
ZACATECAS      MOCLDY    63  48  59 SE28      30.35S

CENTRAL MEXICO

CITY           SKY/WX    TMP DP  RH WIND       PRES   REMARKS
CUERNAVACA       N/A    N/A N/A N/A MISG        N/A
LEON           PTCLDY    68  52  56 NE10      30.34S
MEXICO CITY    MOCLDY    63  48  59 NW8       30.37S
MORELIA        MOCLDY    59  59 100 CALM      30.28
POZA RICA        N/A    N/A N/A N/A MISG        N/A
S. LUIS POTOSI PTCLDY    64  54  68 SE12      30.34F
TOLUCA         CLOUDY    55  48  76 NE6       30.42S
VERACRUZ       CLOUDY    73  73 100 W3        29.97F

SOUTHERN MEXICO

CITY           SKY/WX    TMP DP  RH WIND       PRES   REMARKS
ACAPULCO       CLOUDY    79  73  83 NE9       29.90F
B. DE HUATULCO   N/A    N/A N/A N/A MISG        N/A
MINATITLAN       N/A    N/A N/A N/A MISG        N/A
PTO. ESCONDIDO   N/A    N/A N/A N/A MISG        N/A
TAPACHULA      CLOUDY    79  77  94 CALM      29.95S
VILLAHERMOSA   MOCLDY    73  72  94 CALM      29.99F

YUCATAN PENINSULA

CITY           SKY/WX    TMP DP  RH WIND       PRES   REMARKS
CAMPECHE         N/A    N/A N/A N/A MISG        N/A
CANCUN         PTCLDY    81  79  94 NE3       30.04F
CHETUMAL         N/A    N/A N/A N/A MISG        N/A
C. DEL CARMEN    N/A    N/A N/A N/A MISG        N/A
COZUMEL        MOCLDY    79  77  94 E6        30.01F
MERIDA         CLOUDY    75  73  94 CALM      30.05S

$$





USA.gov is the U.S. government's official web portal to all federal, state and local government web resources and services.